DW2453 Weather Reports


Display with metric or nautical units.
time (UTC)temp
F
wind
direction
speed
MPH
gust
MPH
rain 1hr
in
rain 24hr
in
rain mn
in
humidity
%
barometer
mb
20260906233342 97 290 0.0 0.0 0.00 0.00 0.00 20 1012.4
20260906232845 97 290 0.0 0.0 0.00 0.00 0.00 19 1012.3
20260906232342 97 290 0.0 0.0 0.00 0.00 0.00 19 1012.2
20260906231842 97 290 0.0 0.0 0.00 0.00 0.00 19 1012.3
20260906231342 97 290 0.0 0.0 0.00 0.00 0.00 19 1012.2
20260906230842 98 290 0.0 0.0 0.00 0.00 0.00 19 1012.1
20260906230342 98 290 0.0 0.0 0.00 0.00 0.00 18 1012.0
20260906225842 98 290 0.0 0.0 0.00 0.00 0.00 19 1011.9
20260906225342 98 290 0.0 0.0 0.00 0.00 0.00 19 1011.9
20260906224845 97 290 0.0 0.0 0.00 0.00 0.00 19 1011.9
20260906224345 97 290 0.0 0.0 0.00 0.00 0.00 19 1011.8
20260906223845 97 290 0.0 0.0 0.00 0.00 0.00 18 1011.8
20260906223342 97 290 0.0 0.0 0.00 0.00 0.00 18 1011.7
20260906222842 98 290 0.0 0.0 0.00 0.00 0.00 18 1011.8
20260906222342 98 290 0.0 0.0 0.00 0.00 0.00 18 1011.7
20260906221842 98 290 0.0 0.0 0.00 0.00 0.00 18 1011.8
20260906221342 98 290 0.0 0.0 0.00 0.00 0.00 18 1011.8
20260906220845 98 290 0.0 0.0 0.00 0.00 0.00 18 1011.8
20260906220342 98 290 0.0 0.0 0.00 0.00 0.00 18 1011.7
20260906215842 98 290 0.0 0.0 0.00 0.00 0.00 18 1011.7
20260906215342 98 290 0.0 0.0 0.00 0.00 0.00 18 1011.6
20260906214845 98 290 0.0 0.0 0.00 0.00 0.00 18 1011.7
20260906214343 98 290 0.0 0.0 0.00 0.00 0.00 18 1011.8
20260906213845 98 290 0.0 1.0 0.00 0.00 0.00 18 1012.0
20260906213342 97 290 0.0 1.0 0.00 0.00 0.00 18 1012.0
20260906212842 97 290 0.0 1.0 0.00 0.00 0.00 18 1012.1
20260906212342 97 290 0.0 3.0 0.00 0.00 0.00 18 1012.1
20260906211842 97 290 0.0 1.0 0.00 0.00 0.00 18 1012.1
20260906211342 96 290 0.0 1.0 0.00 0.00 0.00 18 1012.1
20260906210842 96 290 0.0 2.0 0.00 0.00 0.00 18 1012.1
20260906210342 95 290 0.0 2.0 0.00 0.00 0.00 19 1012.0
20260906205842 95 290 0.0 3.0 0.00 0.00 0.00 19 1011.9
20260906205342 95 290 0.0 2.0 0.00 0.00 0.00 19 1012.0
20260906204842 94 290 0.0 0.0 0.00 0.00 0.00 19 1012.2
20260906204345 94 290 0.0 0.0 0.00 0.00 0.00 19 1012.2
20260906203842 94 290 0.0 1.0 0.00 0.00 0.00 19 1012.2
20260906203342 94 290 0.0 0.0 0.00 0.00 0.00 19 1012.3
20260906202842 94 290 0.0 1.0 0.00 0.00 0.00 20 1012.4
20260906202342 94 290 1.0 1.0 0.00 0.00 0.00 19 1012.3
20260906201842 93 290 0.0 1.0 0.00 0.00 0.00 20 1012.4
20260906201342 93 290 0.0 0.0 0.00 0.00 0.00 20 1012.4
20260906200842 93 290 0.0 3.0 0.00 0.00 0.00 19 1012.6
20260906200342 93 290 0.0 1.0 0.00 0.00 0.00 19 1012.6
20260906195842 93 290 0.0 0.0 0.00 0.00 0.00 19 1012.5
20260906195345 93 290 0.0 0.0 0.00 0.00 0.00 19 1012.5
20260906194842 93 290 0.0 3.0 0.00 0.00 0.00 19 1012.5
20260906194342 93 290 0.0 0.0 0.00 0.00 0.00 20 1012.6
20260906193842 93 290 0.0 0.0 0.00 0.00 0.00 20 1012.6
20260906193342 92 290 0.0 0.0 0.00 0.00 0.00 20 1012.5
20260906192842 92 290 0.0 1.0 0.00 0.00 0.00 20 1012.5
20260906192342 92 290 0.0 0.0 0.00 0.00 0.00 21 1012.5
20260906191842 92 290 0.0 0.0 0.00 0.00 0.00 22 1012.6
20260906191342 92 290 0.0 1.0 0.00 0.00 0.00 22 1012.7
20260906190842 91 290 0.0 0.0 0.00 0.00 0.00 23 1012.7
20260906190342 91 290 0.0 0.0 0.00 0.00 0.00 22 1012.6
20260906185842 91 290 0.0 0.0 0.00 0.00 0.00 23 1012.6
20260906185343 90 290 0.0 0.0 0.00 0.00 0.00 24 1012.6
20260906184842 89 290 0.0 0.0 0.00 0.00 0.00 26 1012.6
20260906184345 89 290 0.0 0.0 0.00 0.00 0.00 26 1012.6
20260906183842 88 290 0.0 0.0 0.00 0.00 0.00 26 1012.6
20260906183342 88 290 0.0 0.0 0.00 0.00 0.00 26 1012.8
20260906182842 88 290 0.0 0.0 0.00 0.00 0.00 27 1012.9
20260906182342 88 290 0.0 0.0 0.00 0.00 0.00 28 1013.0
20260906181842 87 290 0.0 0.0 0.00 0.00 0.00 28 1013.0
20260906181342 87 290 0.0 0.0 0.00 0.00 0.00 28 1013.1
20260906180842 87 290 0.0 0.0 0.00 0.00 0.00 29 1013.2
20260906180342 86 290 0.0 0.0 0.00 0.00 0.00 28 1013.4
20260906175842 86 290 0.0 0.0 0.00 0.00 0.00 29 1013.3
20260906175342 86 290 0.0 0.0 0.00 0.00 0.00 28 1013.4
20260906174842 86 290 0.0 0.0 0.00 0.00 0.00 29 1013.4
20260906174342 85 290 0.0 0.0 0.00 0.00 0.00 30 1013.4
20260906173843 85 290 0.0 0.0 0.00 0.00 0.00 30 1013.5
20260906173342 85 290 0.0 0.0 0.00 0.00 0.00 30 1013.6
20260906172842 85 290 0.0 0.0 0.00 0.00 0.00 30 1013.6
20260906172342 84 290 0.0 0.0 0.00 0.00 0.00 31 1013.6
20260906171842 84 290 0.0 0.0 0.00 0.00 0.00 32 1013.6
20260906171345 84 290 0.0 0.0 0.00 0.00 0.00 32 1013.6
20260906170842 83 290 0.0 0.0 0.00 0.00 0.00 33 1013.6
20260906170343 83 290 0.0 0.0 0.00 0.00 0.00 33 1013.6
20260906165845 82 290 0.0 0.0 0.00 0.00 0.00 33 1013.6
20260906165342 81 290 0.0 0.0 0.00 0.00 0.00 35 1013.7
20260906164842 80 290 0.0 0.0 0.00 0.00 0.00 36 1013.8
20260906164342 80 290 0.0 0.0 0.00 0.00 0.00 37 1013.8
20260906163842 79 290 0.0 0.0 0.00 0.00 0.00 36 1013.8
20260906163342 78 290 0.0 0.0 0.00 0.00 0.00 37 1013.8
20260906162842 78 290 0.0 0.0 0.00 0.00 0.00 40 1013.7
20260906162342 77 290 0.0 0.0 0.00 0.00 0.00 40 1013.7
20260906161842 77 290 0.0 0.0 0.00 0.00 0.00 39 1013.6
20260906161342 77 290 0.0 0.0 0.00 0.00 0.00 40 1013.7
20260906160842 77 290 0.0 0.0 0.00 0.00 0.00 39 1013.7
20260906160342 76 290 0.0 0.0 0.00 0.00 0.00 41 1013.7
20260906155845 76 290 0.0 0.0 0.00 0.00 0.00 40 1013.7
20260906155342 76 290 0.0 0.0 0.00 0.00 0.00 40 1013.7
20260906154845 76 290 0.0 1.0 0.00 0.00 0.00 40 1013.8
20260906154342 75 290 0.0 0.0 0.00 0.00 0.00 42 1013.8
20260906153842 75 290 0.0 0.0 0.00 0.00 0.00 42 1013.8
20260906153342 75 290 0.0 0.0 0.00 0.00 0.00 42 1013.7
20260906152842 75 290 0.0 0.0 0.00 0.00 0.00 42 1013.7
20260906152343 74 290 0.0 0.0 0.00 0.00 0.00 42 1013.8
20260906151842 74 290 0.0 0.0 0.00 0.00 0.00 43 1013.7
20260906151342 74 290 0.0 0.0 0.00 0.00 0.00 42 1013.7
20260906150843 74 290 0.0 0.0 0.00 0.00 0.00 42 1013.8
20260906150342 74 290 0.0 0.0 0.00 0.00 0.00 43 1013.9
20260906145842 73 290 0.0 0.0 0.00 0.00 0.00 43 1013.9
20260906145342 73 290 0.0 0.0 0.00 0.00 0.00 43 1013.9
20260906144842 73 290 0.0 0.0 0.00 0.00 0.00 43 1013.8
20260906144346 73 290 0.0 0.0 0.00 0.00 0.00 43 1013.8
20260906143842 72 290 0.0 2.0 0.00 0.00 0.00 43 1013.8
20260906143342 71 290 0.0 2.0 0.00 0.00 0.00 45 1013.8
20260906142842 71 290 0.0 0.0 0.00 0.00 0.00 46 1013.8
20260906142342 70 290 0.0 0.0 0.00 0.00 0.00 46 1013.8
20260906141842 70 290 0.0 0.0 0.00 0.00 0.00 48 1013.8
20260906141345 69 290 0.0 0.0 0.00 0.00 0.00 48 1013.9
20260906140843 69 290 0.0 0.0 0.00 0.00 0.00 48 1013.9
20260906140342 69 290 0.0 0.0 0.00 0.00 0.00 49 1014.0
20260906135843 69 290 0.0 0.0 0.00 0.00 0.00 50 1013.9
20260906135342 68 290 0.0 0.0 0.00 0.00 0.00 48 1013.8
20260906134842 68 290 0.0 0.0 0.00 0.00 0.00 47 1013.8
20260906134346 68 290 0.0 0.0 0.00 0.00 0.00 47 1013.8
20260906133842 68 290 0.0 0.0 0.00 0.00 0.00 47 1013.9
20260906133346 68 290 0.0 0.0 0.00 0.00 0.00 47 1014.0
20260906132845 68 290 0.0 0.0 0.00 0.00 0.00 48 1014.0
20260906132343 67 290 0.0 0.0 0.00 0.00 0.00 47 1014.1
20260906131842 67 290 0.0 0.0 0.00 0.00 0.00 47 1014.1
20260906131342 67 290 0.0 0.0 0.00 0.00 0.00 46 1014.2
20260906130842 67 290 0.0 0.0 0.00 0.00 0.00 46 1014.2
20260906130342 68 290 0.0 0.0 0.00 0.00 0.00 46 1014.2
20260906125842 68 290 0.0 0.0 0.00 0.00 0.00 46 1014.2
20260906125342 68 290 0.0 0.0 0.00 0.00 0.00 45 1014.0
20260906124842 68 290 0.0 0.0 0.00 0.00 0.00 45 1014.1
20260906124345 68 290 0.0 0.0 0.00 0.00 0.00 46 1014.1
20260906123843 68 290 0.0 0.0 0.00 0.00 0.00 46 1014.1
20260906123342 68 290 0.0 0.0 0.00 0.00 0.00 46 1014.2
20260906122843 68 290 0.0 0.0 0.00 0.00 0.00 46 1014.1
20260906122342 69 290 0.0 0.0 0.00 0.00 0.00 46 1014.1
20260906121842 69 290 0.0 0.0 0.00 0.00 0.00 46 1014.2
20260906121342 69 290 0.0 0.0 0.00 0.00 0.00 47 1014.2
20260906120842 69 290 0.0 0.0 0.00 0.00 0.00 47 1014.2
20260906120342 69 290 0.0 0.0 0.00 0.00 0.00 46 1014.1
20260906115845 69 290 0.0 0.0 0.00 0.00 0.00 46 1014.3
20260906115342 69 290 0.0 0.0 0.00 0.00 0.00 47 1014.4
20260906114842 69 290 0.0 0.0 0.00 0.00 0.00 48 1014.5
20260906114342 69 290 0.0 0.0 0.00 0.00 0.00 47 1014.6
20260906113842 70 290 0.0 0.0 0.00 0.00 0.00 47 1014.5
20260906113342 70 290 0.0 0.0 0.00 0.00 0.00 47 1014.8
20260906112842 70 290 0.0 0.0 0.00 0.00 0.00 47 1014.8
20260906112345 70 290 0.0 0.0 0.00 0.00 0.00 46 1014.9
20260906111842 70 290 0.0 0.0 0.00 0.00 0.00 45 1014.7
20260906111342 71 290 0.0 0.0 0.00 0.00 0.00 45 1014.8
20260906110843 71 290 0.0 0.0 0.00 0.00 0.00 45 1014.8
20260906110346 71 290 0.0 0.0 0.00 0.00 0.00 45 1015.0
20260906105845 71 290 0.0 0.0 0.00 0.00 0.00 45 1015.2
20260906105342 71 290 0.0 0.0 0.00 0.00 0.00 45 1015.3
20260906104842 71 290 0.0 0.0 0.00 0.00 0.00 45 1015.5
20260906104342 72 290 0.0 0.0 0.00 0.00 0.00 45 1015.4
20260906103842 72 290 0.0 0.0 0.00 0.00 0.00 45 1015.4
20260906103342 72 290 0.0 0.0 0.00 0.00 0.00 45 1015.4
20260906102842 72 290 0.0 0.0 0.00 0.00 0.00 44 1015.5
20260906102342 72 290 0.0 0.0 0.00 0.00 0.00 43 1015.7
20260906101845 72 290 0.0 0.0 0.00 0.00 0.00 42 1015.8
20260906101342 71 290 0.0 0.0 0.00 0.00 0.00 43 1015.9
20260906100842 71 290 0.0 0.0 0.00 0.00 0.00 43 1015.8
20260906100342 72 290 0.0 0.0 0.00 0.00 0.00 43 1016.0
20260906095845 72 290 0.0 0.0 0.00 0.00 0.00 43 1016.0
20260906095343 72 290 0.0 0.0 0.00 0.00 0.00 43 1016.0
20260906094842 72 290 0.0 0.0 0.00 0.00 0.00 42 1016.0
20260906094342 72 290 0.0 0.0 0.00 0.00 0.00 41 1016.1
20260906093842 72 290 0.0 0.0 0.00 0.00 0.00 42 1016.1
20260906093342 72 290 0.0 0.0 0.00 0.00 0.00 41 1016.1
20260906092842 72 290 0.0 0.0 0.00 0.00 0.00 41 1016.2
20260906092345 72 290 0.0 0.0 0.00 0.00 0.00 41 1016.2
20260906091842 72 290 0.0 0.0 0.00 0.00 0.00 41 1016.2
20260906091342 72 290 0.0 0.0 0.00 0.00 0.00 40 1016.2
20260906090842 72 290 0.0 0.0 0.00 0.00 0.00 40 1016.2
20260906090342 72 290 0.0 0.0 0.00 0.00 0.00 40 1016.1
20260906085842 72 290 0.0 0.0 0.00 0.00 0.00 40 1016.1
20260906085342 72 290 0.0 0.0 0.00 0.00 0.00 40 1016.2
20260906084842 72 290 0.0 0.0 0.00 0.00 0.00 41 1016.4
20260906084342 72 290 0.0 0.0 0.00 0.00 0.00 41 1016.4
20260906083842 72 290 0.0 0.0 0.00 0.00 0.00 40 1016.6
20260906083342 72 290 0.0 0.0 0.00 0.00 0.00 40 1016.7
20260906082842 72 290 0.0 0.0 0.00 0.00 0.00 40 1016.8
20260906082345 72 290 0.0 0.0 0.00 0.00 0.00 40 1016.9
20260906081842 72 290 0.0 0.0 0.00 0.00 0.00 40 1016.9
20260906081342 72 290 0.0 0.0 0.00 0.00 0.00 40 1016.9
20260906080843 72 290 0.0 0.0 0.00 0.00 0.00 40 1017.0
20260906080345 72 290 0.0 0.0 0.00 0.00 0.00 40 1017.3
20260906075842 72 290 0.0 0.0 0.00 0.00 0.00 39 1017.3
20260906075342 72 290 0.0 0.0 0.00 0.00 0.00 39 1017.3
20260906074842 72 290 0.0 0.0 0.00 0.00 0.00 39 1017.5
20260906074342 72 290 0.0 0.0 0.00 0.00 0.00 39 1017.5
20260906073845 72 290 0.0 0.0 0.00 0.00 0.00 39 1017.6
20260906073342 72 290 0.0 0.0 0.00 0.00 0.00 39 1017.6
20260906072845 72 290 0.0 0.0 0.00 0.00 0.00 40 1017.7
20260906072342 72 290 0.0 0.0 0.00 0.00 0.00 41 1017.7
20260906071842 72 290 0.0 0.0 0.00 0.00 0.00 41 1017.8
20260906071342 72 290 0.0 0.0 0.00 0.00 0.00 42 1017.8
20260906070842 73 290 0.0 0.0 0.00 0.00 0.00 43 1017.7
20260906070342 73 290 0.0 0.0 0.00 0.00 0.00 44 1017.8
20260906065842 73 290 0.0 0.0 0.00 0.00 0.00 44 1017.9
20260906065342 73 290 0.0 0.0 0.00 0.00 0.00 44 1018.0
20260906064842 74 290 0.0 0.0 0.00 0.00 0.00 43 1018.0
20260906064342 74 290 0.0 0.0 0.00 0.00 0.00 42 1018.1
20260906063842 74 290 0.0 0.0 0.00 0.00 0.00 42 1018.0
20260906063342 74 290 0.0 0.0 0.00 0.00 0.00 41 1018.1
20260906062842 74 290 0.0 0.0 0.00 0.00 0.00 41 1018.0
20260906062342 74 290 0.0 0.0 0.00 0.00 0.00 40 1018.1
20260906061842 74 290 0.0 0.0 0.00 0.00 0.00 40 1018.1
20260906061342 74 290 0.0 0.0 0.00 0.00 0.00 40 1018.0
20260906060842 74 290 0.0 0.0 0.00 0.00 0.00 39 1018.1
20260906060345 74 290 0.0 0.0 0.00 0.00 0.00 39 1017.9
20260906055842 74 290 0.0 0.0 0.00 0.00 0.00 39 1017.9
20260906055342 74 290 0.0 0.0 0.00 0.00 0.00 39 1017.9
20260906054842 74 290 0.0 0.0 0.00 0.00 0.00 39 1017.9
20260906054342 75 290 0.0 0.0 0.00 0.00 0.00 39 1017.9
20260906053845 75 290 0.0 0.0 0.00 0.00 0.00 39 1017.9
20260906053342 75 290 0.0 0.0 0.00 0.00 0.00 38 1017.9
20260906052842 75 290 0.0 0.0 0.00 0.00 0.00 39 1017.9
20260906052342 75 290 0.0 0.0 0.00 0.00 0.00 38 1017.9
20260906051842 76 290 0.0 0.0 0.00 0.00 0.00 38 1017.8
20260906051342 76 290 0.0 0.0 0.00 0.00 0.00 37 1017.9
20260906050842 76 290 0.0 0.0 0.00 0.00 0.00 37 1017.8
20260906050342 76 290 0.0 0.0 0.00 0.00 0.00 37 1017.8
20260906045845 77 290 0.0 0.0 0.00 0.00 0.00 37 1017.8
20260906045345 77 290 0.0 0.0 0.00 0.00 0.00 36 1017.7
20260906044845 77 290 0.0 0.0 0.00 0.00 0.00 36 1017.8
20260906044342 77 290 0.0 0.0 0.00 0.00 0.00 36 1017.7
20260906043842 77 290 0.0 0.0 0.00 0.00 0.00 36 1017.9
20260906043342 77 290 0.0 0.0 0.00 0.00 0.00 36 1017.8
20260906042845 77 290 0.0 0.0 0.00 0.00 0.00 36 1017.8
20260906042342 77 290 0.0 0.0 0.00 0.00 0.00 37 1017.8
20260906041842 77 290 0.0 0.0 0.00 0.00 0.00 37 1017.8
20260906041342 77 290 0.0 0.0 0.00 0.00 0.00 36 1017.9
20260906040842 78 290 0.0 0.0 0.00 0.00 0.00 36 1017.9
20260906040342 78 290 0.0 0.0 0.00 0.00 0.00 36 1017.9
20260906035842 78 290 0.0 0.0 0.00 0.00 0.00 35 1018.0
20260906035342 78 290 0.0 0.0 0.00 0.00 0.00 36 1017.9
20260906034842 78 290 0.0 0.0 0.00 0.00 0.00 36 1017.8
20260906034342 78 290 0.0 0.0 0.00 0.00 0.00 36 1017.8
20260906033842 78 290 0.0 0.0 0.00 0.00 0.00 36 1017.8
20260906033345 78 290 0.0 0.0 0.00 0.00 0.00 36 1017.7
20260906032842 78 290 0.0 0.0 0.00 0.00 0.00 36 1017.7
20260906032342 79 290 0.0 0.0 0.00 0.00 0.00 36 1017.6
20260906031842 79 290 0.0 0.0 0.00 0.00 0.00 36 1017.5
20260906031342 79 290 0.0 0.0 0.00 0.00 0.00 36 1017.4
20260906030842 79 290 0.0 0.0 0.00 0.00 0.00 36 1017.2
20260906030342 80 290 0.0 0.0 0.00 0.00 0.00 36 1017.2
20260906025842 80 290 0.0 0.0 0.00 0.00 0.00 36 1017.1
20260906025345 80 290 0.0 0.0 0.00 0.00 0.00 36 1017.0
20260906024842 81 290 0.0 0.0 0.00 0.00 0.00 36 1016.7
20260906024342 81 290 0.0 0.0 0.00 0.00 0.00 36 1016.7
20260906023845 82 290 0.0 0.0 0.00 0.00 0.00 35 1016.7
20260906023342 82 290 0.0 0.0 0.00 0.00 0.00 34 1016.6
20260906022842 82 290 0.0 0.0 0.00 0.00 0.00 33 1016.5
20260906022342 83 290 0.0 0.0 0.00 0.00 0.00 33 1016.4
20260906021842 83 290 0.0 0.0 0.00 0.00 0.00 33 1016.3
20260906021342 84 290 0.0 0.0 0.00 0.00 0.00 33 1016.3
20260906020842 84 290 0.0 0.0 0.00 0.00 0.00 32 1016.1
20260906020342 84 290 0.0 0.0 0.00 0.00 0.00 32 1016.0
20260906015845 85 290 0.0 0.0 0.00 0.00 0.00 31 1015.9
20260906015342 85 290 0.0 0.0 0.00 0.00 0.00 31 1015.8
20260906014842 86 290 0.0 0.0 0.00 0.00 0.00 31 1015.9
20260906014342 86 290 0.0 1.0 0.00 0.00 0.00 30 1015.8
20260906013842 87 290 0.0 0.0 0.00 0.00 0.00 30 1015.7
20260906013342 87 290 0.0 0.0 0.00 0.00 0.00 30 1015.6
20260906012842 87 290 0.0 0.0 0.00 0.00 0.00 29 1015.6
20260906012342 88 290 0.0 0.0 0.00 0.00 0.00 29 1015.4
20260906011842 88 290 0.0 0.0 0.00 0.00 0.00 29 1015.5
20260906011342 89 290 0.0 1.0 0.00 0.00 0.00 28 1015.4
20260906010842 90 290 0.0 2.0 0.00 0.00 0.00 27 1015.4
20260906010342 90 290 0.0 0.0 0.00 0.00 0.00 27 1015.4
20260906005842 90 290 0.0 0.0 0.00 0.00 0.00 27 1015.3
20260906005342 91 290 0.0 0.0 0.00 0.00 0.00 27 1015.3
20260906004842 91 290 0.0 0.0 0.00 0.00 0.00 27 1015.2
20260906004342 91 290 0.0 0.0 0.00 0.00 0.00 26 1015.3
20260906003842 92 290 0.0 0.0 0.00 0.00 0.00 26 1015.2
20260906003342 92 290 0.0 0.0 0.00 0.00 0.00 26 1015.1
20260906002842 92 290 0.0 3.0 0.00 0.00 0.00 25 1015.1
20260906002342 92 290 0.0 0.0 0.00 0.00 0.00 26 1015.0
20260906001842 92 290 0.0 0.0 0.00 0.00 0.00 25 1014.8
20260906001342 92 290 0.0 1.0 0.00 0.00 0.00 25 1014.8
20260906000842 92 290 0.0 0.0 0.00 0.00 0.00 26 1014.9
20260906000345 92 290 0.0 0.0 0.00 0.00 0.00 26 1014.8
20260905235842 92 290 0.0 0.0 0.00 0.00 0.00 26 1014.5
20260905235345 92 290 0.0 0.0 0.00 0.00 0.00 26 1014.4
20260905234842 92 290 0.0 5.0 0.00 0.00 0.00 26 1014.2
20260905234342 92 290 0.0 2.0 0.00 0.00 0.00 26 1014.1
20260905233842 93 290 0.0 0.0 0.00 0.00 0.00 25 1014.1